Location: Piedmont
(45.8748°N, 74.1254°W)
Time: 14:36:50
(UTC+00:00)

N. Korean satellite - Pass Details

Date: 07 December 2021
Orbit: 446 x 491 km, 97.3° (Epoch: 18 January)

Event Time Altitude Azimuth Distance (km) Brightness Sun altitude
Rises 21:44:46 0° 184° (S) 2,520 10.7 -5.8°
Reaches altitude 10° 21:46:56 10° 192° (SSW) 1,638 9.8 -6.2°
Maximum altitude 21:50:14 38° 262° (W) 734 8.2 -6.7°
Drops below altitude 10° 21:53:31 10° 332° (NNW) 1,625 9.3 -7.2°
Sets 21:55:39 0° 341° (NNW) 2,497 10.1 -7.5°
